カタログに戻る

THOR ABLESTAR DEB

運用中LEO
NORAD 119·DEBRIS·🇺🇸 United States

打ち上げ Jun 29, 1961 から Cape Canaveral Space Force Station

Loading…

次のパス (今後24時間)

TLE

最新Source: Space-Track

元期: Sep 14, 2026, 10:17 UTC

1 00119U 61015D   26257.42877924  .00000340  00000-0  16377-3 0  9993
2 00119  66.7267 156.3381 0102433 198.6821 161.0506 14.27424170371059

AllMySatでTHOR ABLESTAR DEBをリアルタイム追跡

Download on the App Store